281  
ASUS41 KOKX 010104  
RWROKX  
 
REGIONAL WEATHER ROUNDUP  
NATIONAL WEATHER SERVICE NEW YORK NY  
900 PM EDT WED AUG 31 2016  
 
NOTE: "FAIR" INDICATES FEW OR NO CLOUDS BELOW 12,000 FEET WITH NO  
SIGNIFICANT WEATHER AND/OR S TO VISIBILITY
.  
 
NYZ071-072-176-178-NJZ106-104-010200-  
NEW YORK CITY METRO AREA  
 
CITY SKY/WX TMP DP RH WIND PRES REMARKS
 
CENTRAL PARK CLOUDY 80 66 62 CALM 29.91S  
LAGUARDIA APRT CLOUDY 81 67 62 S10 29.88S  
KENNEDY INTL CLOUDY 79 74 84 S15G23 29.90R  
NEWARK/LIBERTY CLOUDY 81 67 62 S8 29.88R  
BRONX BOT GARD N/A 79 64 61 E3 29.90S  
WALL ST HELIPT CLOUDY 79 70 73 SW8 29.90R  
TETERBORO CLOUDY 80 66 62 S7 29.87R  

 
 
NYZ177-179-078>081-010200-  
LONG ISLAND NEW YORK  
 
CITY SKY/WX TMP DP RH WIND PRES REMARKS
 
FARMINGDALE CLOUDY 78 70 76 SW10 29.91R  
MACARTHUR/ISP CLOUDY 77 70 79 SW9 29.90R  
SHIRLEY CLOUDY 76 70 82 S6 29.92R  
RIVERHEAD NOT AVBL  
WESTHAMPTON CLOUDY 75 70 84 S6 29.93R  
SOUTHAMPTON N/A 75 72 88 SW3 29.88R  
BRIDGEHAMPTON NOT AVBL  
EAST HAMPTON FAIR 74 70 88 SW3 29.91R  
MONTAUK N/A 75 72 90 VRB5 29.92R  

 
 
NYZ052-065-067-010200-  
HUDSON VALLEY  
 
CITY SKY/WX TMP DP RH WIND PRES REMARKS
 
WHITE PLAINS CLOUDY 76 69 79 S5 29.90R  
NEWBURGH MOCLDY 73 68 83 CALM 29.91S  
MONTGOMERY CLOUDY 73 69 87 W3 29.89S  
POUGHKEEPSIE CLOUDY 71 68 90 CALM 29.87S  
ALBANY CLOUDY 70 66 87 SW5 29.88R  

 
 
NJZ001-105-106-008-010-013-015-019>022-104-010200-  
NEW JERSEY  
 
CITY SKY/WX TMP DP RH WIND PRES REMARKS
 
NEWARK/LIBERTY CLOUDY 81 67 62 S8 29.88R  
TETERBORO CLOUDY 80 66 62 S7 29.87R  
CALDWELL CLOUDY 81 68 64 CALM 29.89R  
MORRISTOWN MOCLDY 81 68 65 CALM 29.89R  
SOMERVILLE CLOUDY 75 70 84 CALM 29.87R  
LINDEN FAIR 80 65 59 CALM 29.90S  
SUSSEX PTCLDY 72 70 93 CALM 29.90S  
ABDOVER N/A 73 69 87 CALM 29.91R  
TRENTON CLOUDY 80 67 64 S12 29.88R  
MILLVILLE CLEAR 76 69 79 CALM 29.92R  
ATLANTIC CITY CLEAR 78 67 68 S6 29.92R  
WRIGHTSTOWN LGT RAIN 77 68 73 S7 29.89R  
TOMS RIVER MOCLDY 76 67 73 S7 29.91R  
BELMAR CLOUDY 78 67 68 S7 29.92R  

 
 
PAZ047>061-062-071-010200-  
EASTERN PENNSYLVANIA  
 
CITY SKY/WX TMP DP RH WIND PRES REMARKS
 
PHILADELPHIA LGT RAIN 80 67 64 SW13 29.92R  
ALLENTOWN CLOUDY 77 68 73 CALM 29.90R  
SCRANTON CLOUDY 74 68 81 W3 29.94R  

 
 
CTZ002-004>006-009-010-012-RIZ004-006-007-MAZ004-011-015-010200-  
SOUTHERN NEW ENGLAND  
IN CT  
 
CITY SKY/WX TMP DP RH WIND PRES REMARKS
 
BRADLEY INTL LGT RAIN 75 67 76 SW7 29.89R  
HARTFORD CLOUDY 79 68 69 S7 29.88R  
DANBURY CLOUDY 72 69 90 CALM 29.91S  
WTRBURY/OXFORD CLOUDY 72 66 83 CALM 29.93S  
BRIDGEPORT PTCLDY 79 71 76 SW9 29.89R  
MERIDEN LGT RAIN 76 68 76 S5 29.89R  
NEW HAVEN CLOUDY 77 71 82 S6 29.90R  
CHESTER FAIR 75 70 83 S6 29.92R  
GROTON CLOUDY 75 71 87 SW6 29.90R  
WILIMANTIC CLOUDY 75 70 84 S7 29.90R  
 
IN RI  
 
CITY SKY/WX TMP DP RH WIND PRES REMARKS
 
PROVIDENCE CLOUDY 75 69 81 SW8 29.89S  
BLOCK ISLAND MOCLDY 74 71 91 SW10 29.92R  
WESTERLY CLOUDY 75 69 81 SW6 29.92R  
IN MA  
 
CITY SKY/WX TMP DP RH WIND PRES REMARKS
 
BOSTON CLOUDY 79 66 64 SW8 29.86S  
WORCESTER MOCLDY 71 65 81 SW8 29.91R  
WESTFIELD CLOUDY 74 66 76 S3 29.87S  
PROVINCETOWN CLOUDY 72 70 93 SW10 29.89R  
NANTUCKET CLOUDY 71 67 87 SW10 29.92R  

 
 
ANZ330-335-338-340-345-350-353-355-010200-  
COASTAL MARINE OBSERVATIONS  
 
 
STATION/POSITION TIME SKY/WX TEMP WIND PRES VSBY WAVE
 
AIR SEA DIR/SP/G HT/PER  
(UTC) (F) (DEG/KT/KT) (MB) (MI) (FT/S)  
NY HARB ENTRANCE 2350 78 78 200/ 16/ 17 1011.7 4/11  
20S FIRE ISLAND 2350 78 76 190/ 14/ 16 1011.6 4/11  
GREAT SOUTH BAY NOT AVBL  
23 SSW MONTAUK P 2350 77 78 210/ 14/ 16 1012.7 4/11  
15 E BARNEGAT LI 0000 78 N/A 4/12  
HUDSON CANYON 2350 78 79 1012.7 3/10  
KINGS POINT 0000 78 77 N/A  
EXECUTION ROCKS 0000 78 190/ 10/ 12 N/A  
CENTRAL LI SOUND 0000 77 76 210/ 14/ 16 N/A 1/ 3  
EASTERN LI SOUND 0000 74 70 210/ 8/ 10 N/A  
ROBBINS REEF 0000 77 N/A  

 
 
>>>>>>>>>>>>>>>>>>>>>>>>>>>> KEY <<<<<<<<<<<<<<<<<<<<<<<<<<<  
> <  
> SKY/WX - SKY CONDITION/PRESENT WEATHER <  
> TMP - TEMPERATURE IN FAHRENHEIT <  
> DP - DEW POINT IN FAHRENHEIT <  
> RH - RELATIVE HUMIDITY IN PERCENT <  
> WIND - DIRECTION (FROM) AND SPEED IN MPH <  
> PRES - MEAN SEA LEVEL PRESSURE (INCHES OF HG) <  
> WCI - WIND CHILL INDEX <  
> VSB - VISIBILITY IN MILES <  
> HX - HEAT INDEX <  
> TC - TEMPERATURE IN CELSIUS <  
> VRB - VARIABLE WIND DIRECTION <  
> <  
>>>>>>>>>>>>>>>>>>>>>>>>>>>> KEY <<<<<<<<<<<<<<<<<<<<<<<<<<<  
 
 
CLICK HERE TO GO TO PREVIOUS BULLETINS.

The Nexlab NY Page
The Nexlab NJ Page
The Nexlab CT Page Main Text Page